EUTELSAT 8 WEST B (40875 NORAD) Tracking and Keplerian Element Data

This shows tracking and keplerian element data for the satellite.

Feedback or suggestion? Click here.




ElementValue
Catalog40875
NameEUTELSAT 8 WEST B
Epoch Orbit1690
Epoch Day90.45882865
Epoch Year2020
RAAN21.6187
Inclination0.0703
Eccentricity0.0003321
Argument of Perigee22.8978
Mean Anonmoly300.945
Mean Motion1.00272271
Decay Rate-6.6E-07
L11 40875U 15039B 20090.45882865 -.00000066 00000-0 00000-0 0 9992
L22 40875 0.0703 21.6187 0003321 22.8978 300.9450 1.00272271 16905

Live tracking and technical data element details for EUTELSAT 8 WEST B (NORAD 40875). EUTELSAT 8 WEST B can be tracked NOW for your location showing map with azimuth and elevation plus other details from your city location.

Track the satellite on the map from your city or location and see movement details for azimuth, elevation, latitude, longitude, range, height, and movement on the map or in text.







IsCatalogInMostPopularTable: catalog: 40875, numindb: 332
Update: records affected: 1



GetName: 40875 EUTELSAT 8 WEST B

Hit Count: updated at: Fri, 03 Apr 2020 08:52:34 GMT